Nellis AFB, NV

2:38 AM PST on December 14, 2019 (GMT -0800)
Nellis Air Force Base

Weather History for KLSV - October, 2019

Change the Weather History Date:

Wednesday, October 9, 2019

  Actual Average Record
Temperature  
Mean Temperature 74 °F -  
Max Temperature 90 °F 84 °F 100 °F (1996)
Min Temperature 58 °F 57 °F 49 °F (2007)
Cooling Degree Days 8    
Growing Degree Days 24 (Base 50)    
Moisture  
Dew Point 22 °F    
Average Humidity 14    
Maximum Humidity 27    
Minimum Humidity 9    
Precipitation  
Precipitation 0.00 in - - ()
Sea Level Pressure  
Sea Level Pressure 29.61 in    
Wind  
Wind Speed 7 mph (NNW)    
Max Wind Speed 34 mph    
Max Gust Speed 40 mph    
Visibility 10 miles    
Events      
Averages and records for this station are not official NWS values.
T = Trace of Precipitation, MM = Missing Value Source: NWS Daily Summary

Daily Weather History Graph

Daily Weather History Graph

Search for Another Location

Airport or City:

Astronomy

Oct. 09, 2019 Rise Set
Actual Time 6:41 AM PDT 6:12 PM PDT
Civil Twilight 6:16 AM PDT 6:38 PM PDT
Nautical Twilight 5:46 AM PDT 7:07 PM PDT
Astronomical Twilight 5:16 AM PDT 7:37 PM PDT
Moon 4:37 PM PDT (10/9) 2:42 AM PDT (10/9)
Length of Visible Light 12h 22m
Length of Day
11h 30m
Waxing Gibbous, 85% of the Moon is Illuminated
Oct 9
Waxing Gibbous
Oct 13
Full
Oct 21
Last Quarter
Oct 27
New
Nov 4
First Quarter

Hourly Weather History & Observations

Time (PDT) Temp. Dew Point Humidity Pressure Visibility Wind Dir Wind Speed Gust Speed Precip Events Conditions
12:55 AM 71.4 °F 19.4 °F 14% 29.60 in 10.0 mi North 5.8 mph - N/A   Clear
1:58 AM 69.8 °F 24.4 °F 18% 29.63 in 10.0 mi North 5.8 mph - N/A   Clear
2:58 AM 68.0 °F 25.3 °F 20% 29.61 in 10.0 mi NNW 4.6 mph - N/A   Clear
3:55 AM 74.1 °F 18.7 °F 12% 29.56 in 10.0 mi Variable 2.3 mph - N/A   Clear
4:55 AM 67.1 °F 21.4 °F 18% 29.59 in 10.0 mi Variable 6.9 mph - N/A   Clear
5:58 AM 62.2 °F 22.8 °F 22% 29.62 in 10.0 mi North 8.1 mph - N/A   Clear
6:58 AM 58.5 °F 24.6 °F 27% 29.64 in 10.0 mi SE 3.5 mph - N/A   Clear
7:58 AM 61.2 °F 25.0 °F 25% 29.65 in 10.0 mi SSE 3.5 mph - N/A   Clear
8:58 AM 68.9 °F 23.5 °F 18% 29.66 in 10.0 mi Calm Calm - N/A   Clear
9:58 AM 73.2 °F 24.3 °F 16% 29.66 in 10.0 mi NW 3.5 mph - N/A   Clear
10:58 AM 79.7 °F 27.9 °F 15% 29.65 in 10.0 mi Calm Calm - N/A   Clear
11:58 AM 82.6 °F 26.8 °F 13% 29.61 in 10.0 mi South 3.5 mph - N/A   Clear
12:58 PM 86.2 °F 25.5 °F 11% 29.58 in 10.0 mi SW 3.5 mph - N/A   Clear
1:58 PM 88.3 °F 24.8 °F 10% 29.55 in 10.0 mi Calm Calm - N/A   Clear
2:58 PM 88.9 °F 22.6 °F 9% 29.53 in 10.0 mi Calm Calm - N/A   Clear
3:58 PM 88.9 °F 25.2 °F 10% 29.52 in 10.0 mi Calm Calm - N/A   Clear
4:58 PM 89.6 °F 23.2 °F 9% 29.52 in 10.0 mi SW 3.5 mph - N/A   Clear
5:58 PM 86.4 °F 23.4 °F 10% 29.53 in 10.0 mi South 5.8 mph - N/A   Clear
6:58 PM 83.1 °F 25.2 °F 12% 29.54 in 10.0 mi SSW 5.8 mph - N/A   Clear
7:58 PM 81.9 °F 19.9 °F 10% 29.56 in 10.0 mi WNW 8.1 mph - N/A   Clear
8:58 PM 78.3 °F 19.8 °F 11% 29.62 in 10.0 mi NNE 13.8 mph 20.7 mph N/A   Clear
9:18 PM 77.0 °F 19.4 °F 12% 29.67 in 5.0 mi North 28.8 mph 39.1 mph N/A   Widespread Dust
9:58 PM 74.5 °F 22.1 °F 14% 29.67 in 5.0 mi North 26.5 mph 35.7 mph N/A   Widespread Dust
10:58 PM 71.1 °F 15.8 °F 12% 29.74 in 10.0 mi North 34.5 mph 40.3 mph N/A   Clear
11:58 PM 67.6 °F 6.8 °F 9% 29.79 in 10.0 mi North 23.0 mph 40.3 mph N/A   Clear